Regional Weather Roundup
Issued by NWS Grand Forks, ND

Home | Current Version | Previous Version | Text Only | Print | Product List | Glossary On
Versions: 1 2 3 4 5 6 7 8 9 10 11 12 13 14 15 16 17 18 19 20 21 22 23 24 25 26 27 28 29 30 31 32 33 34 35 36 37 38 39 40 41 42 43 44 45 46 47 48 49 50
000
ASUS43 KFGF 241831
RWRFGF
PRAIRIE TO PINES  WEATHER ROUNDUP
NATIONAL WEATHER SERVICE EASTERN NORTH DAKOTA/GRAND FORKS ND
100 PM CDT TUE APR 24 2018

 **SATELLITE DATA USED TO AUGMENT SKY COVER AT AUTOMATED STATIONS**
 *****  WEATHER ACROSS EASTERN NORTH DAKOTA  *****

CITY           SKY/WX    TMP DP  RH WIND       PRES   REMARKS
GRAND FORKS    FAIR      49  32  52 N21G31    30.39S
6HR MIN TEMP:  37; 6HR MAX TEMP:  49;

GRAND FRKS AFB FAIR      51  28  40 N18G26    30.39F
GRAND FRKS NWS   N/A     51  31  47 N32       30.35F
DEVILS LAKE    FAIR      49  28  44 N18G24    30.42F
6HR MIN TEMP:  30; 6HR MAX TEMP:  49;

FARGO          FAIR      51  35  54 N20G26    30.36F
WAHPETON ARPT  MOCLDY    50  34  53 N16G24    30.35S
$$

 ***** WEATHER ACROSS CENTRAL AND WESTERN NORTH DAKOTA  *****

CITY           SKY/WX    TMP DP  RH WIND       PRES   REMARKS
BISMARCK       FAIR      54  24  31 N16G26    30.45S
6HR MIN TEMP:  40; 6HR MAX TEMP:  54;

MINOT          FAIR      56  22  26 NW9G21    30.43F
6HR MIN TEMP:  30; 6HR MAX TEMP:  57;

JAMESTOWN      FAIR      52  31  44 N18G26    30.39F
6HR MIN TEMP:  39; 6HR MAX TEMP:  52;

MINOT AFB      FAIR      55  23  28 N12G17    30.42F
GARRISON         N/A     51  24  34 NW14G24   30.45F
WILLISTON      FAIR      55  24  30 S6        30.46F
6HR MIN TEMP:  21; 6HR MAX TEMP:  55;

DICKINSON      FAIR      52  18  26 N12       30.45F
6HR MIN TEMP:  33; 6HR MAX TEMP:  52;

HETTINGER      FAIR      44  29  55 NW10      30.49F
6HR MIN TEMP:  33; 6HR MAX TEMP:  45;

$$

 *****  OTHER AIRPORT OBSERVATIONS IN OUR AREA  *****

CITY           SKY/WX    TMP DP  RH WIND       PRES   REMARKS
WALHALLA       FAIR      48  27  43 N16       30.42F
GRAFTON AIRPOR FAIR      48  28  46 N20G25    30.42F
VALLEY CITY AR FAIR      50  34  53 N16       30.40S
CANDO          FAIR      54  27  35 N13G20    30.44F
CAVALIER APRT    N/A     46  27  46 NW18G24   30.41F
GWINNER          N/A     50  37  62 N20       30.37F
SHEYENNE NWR     N/A     50  34  53 NE14      29.95S
ROLLA          FAIR      48  32  53 N16       30.42F
 ***** THE ABOVE OBSERVATIONS ARE NON NWS ARE NOT QUALITY
       CONTROLLED AND MAY MIS-REPORT RAIN FOR SNOW...
$$

  *****  WEATHER ACROSS NORTHERN MINNESOTA  *****

CITY           SKY/WX    TMP DP  RH WIND       PRES   REMARKS
FLAG ISLAND    FAIR      34  21  60 NW14      30.36S WCI  24
WARROAD        FAIR      43  27  52 N7G18     30.36S
ROSEAU         FAIR      45  30  57 N13G21    30.35S
HALLOCK        FAIR      48  23  37 N20G26    30.39S
THF RVR FALLS  FAIR      47  27  45 N18G26    30.35F
6HR MIN TEMP:  40; 6HR MAX TEMP:  47;

BAUDETTE       FAIR      39  25  57 N16       30.33S
6HR MIN TEMP:  36; 6HR MAX TEMP:  41;

WASKISH        CLOUDY    48  28  46 NW14G20   30.29S
CROOKSTON      FAIR      48  32  53 N20       30.37F
STEPHEN NDAWN    N/A     48  27  43 N20         N/A
GREENBUSH NDAW   N/A     45  30  57 N16         N/A
$$
  *****  WEATHER ACROSS CENTRAL AND WEST MINNESOTA  *****

CITY           SKY/WX    TMP DP  RH WIND       PRES   REMARKS
FOSSTON        FAIR      48  30  49 NW14      30.33F
BEMIDJI        FAIR      51  26  38 N9G20     30.28S
6HR MIN TEMP:  38; 6HR MAX TEMP:  51;

PARK RAPIDS    FAIR      51  27  39 N13G22    30.28F
6HR MIN TEMP:  40; 6HR MAX TEMP:  52; 6HR PCP:  0.01;

ELBOW LAKE     MOCLDY    46  36  70 N13       30.32S
WADENA         FAIR      50  36  57 N13G21    30.28F
DETROIT LAKES  FAIR      50  32  50 N14G21    30.32F
MOORHEAD       FAIR      50  34  53 N25G31    30.36F
FERGUS FALLS   FAIR      50  34  53 N14G20    30.30F
MORRIS MN      RAIN      45  39  81 N15       30.30F
STAPLES        FAIR      48  34  57 N12G18    30.28F
$$
  *****  WEATHER ELSEWHERE ACROSS MINNESOTA  *****

CITY           SKY/WX    TMP DP  RH WIND       PRES   REMARKS
DULUTH         CLOUDY    49  34  56 NW10      30.21S
6HR MIN TEMP:  40; 6HR MAX TEMP:  50;

INTRNTL FALLS  PTSUNNY   45  28  51 N15G25    30.28R
6HR MIN TEMP:  39; 6HR MAX TEMP:  46;

ELY            FAIR      48  27  43 W14       30.19F
CLOQUET        LGT RAIN  46  34  61 NW12      30.22S
WHEATON        CLOUDY    46  39  76 NW12      30.36S
BRAINERD       CLOUDY    44  36  73 N12       30.28S
6HR MIN TEMP:  41; 6HR MAX TEMP:  47; 6HR PCP: TRACE;

HIBBING        FAIR      49  29  46 NW14      30.22F
6HR MIN TEMP:  34; 6HR MAX TEMP:  49; 6HR PCP: TRACE;

ALEXANDRIA     CLOUDY    47  39  74 N12       30.29S
6HR MIN TEMP:  45; 6HR MAX TEMP:  49; 6HR PCP: TRACE;

SAINT CLOUD    CLOUDY    54  38  54 N14G22    30.22F
6HR MIN TEMP:  42; 6HR MAX TEMP:  54;

MINNEAPOLIS    PTSUNNY   64  33  31 N18G25    30.16S
6HR MIN TEMP:  45; 6HR MAX TEMP:  66;

$$

  *****  WEATHER ACROSS SOUTH DAKOTA  *****

CITY           SKY/WX    TMP DP  RH WIND       PRES   REMARKS
SIOUX FALLS    LGT RAIN  47  39  74 NE18      30.23S
6HR MIN TEMP:  46; 6HR MAX TEMP:  51; 6HR PCP: TRACE;

BROOKINGS      CLOUDY    46  41  82 NE21G35   30.24S
WATERTOWN      CLOUDY    41  39  93 NE16      30.29S
6HR MIN TEMP:  41; 6HR MAX TEMP:  46; 6HR PCP:  0.05;

HURON          LGT RAIN  45  40  82 N20G29    30.31R
6HR MIN TEMP:  44; 6HR MAX TEMP:  48; 6HR PCP:  0.07;

SISSETON         N/A     45  41  86 N17       30.34S
ABERDEEN       CLOUDY    43  39  86 NE14      30.39S
6HR MIN TEMP:  41; 6HR MAX TEMP:  43; 6HR PCP:  0.23;

MITCHELL       CLOUDY    47  41  80 N16       30.29R
PIERRE         CLOUDY    39  37  92 N16       30.41R
6HR MIN TEMP:  37; 6HR MAX TEMP:  43; 6HR PCP:  0.01;

MOBRIDGE       FAIR      51  39  63 NE14      30.40S
RAPID CITY     CLOUDY    41  30  65 N23G29    30.46S
6HR MIN TEMP:  33; 6HR MAX TEMP:  42; 6HR PCP:  0.01;

$$

  *****  SOME WEATHER IN NEARBY STATES *****

CITY           SKY/WX    TMP DP  RH WIND       PRES   REMARKS
GLASGOW MT     FAIR      57  23  26 VRB3      30.44F
6HR MIN TEMP:  30; 6HR MAX TEMP:  58;

GREAT FALLS MT FAIR      55  20  25 S21G28    30.41F
6HR MIN TEMP:  28; 6HR MAX TEMP:  55;

CHEYENNE WY    PTSUNNY   35  25  66 N16G30    30.41S
6HR MIN TEMP:  29; 6HR MAX TEMP:  35; 6HR PCP: TRACE;

SCOTTSBLUFF NE CLOUDY    41  33  73 N13       30.45S
6HR MIN TEMP:  37; 6HR MAX TEMP:  41;

OMAHA NE       PTSUNNY   74  36  25 NW8       30.11F
6HR MIN TEMP:  41; 6HR MAX TEMP:  74;

DES MOINES IA  CLOUDY    73  33  23 N5        30.09F
6HR MIN TEMP:  47; 6HR MAX TEMP:  73;

DAVENPORT IA   FAIR      73  24  16 MISG      30.04F HAZE
6HR MIN TEMP:  50; 6HR MAX TEMP:  71;

CHICAGO IL     PTSUNNY   64  48  56 NE9       30.02F
6HR MIN TEMP:  49; 6HR MAX TEMP:  64; 6HR PCP: TRACE;

EAU CLAIRE WI  PTSUNNY   68  34  28 N14       30.09F
6HR MIN TEMP:  37; 6HR MAX TEMP:  70;

LA CROSSE WI   FAIR      71  35  26 W10       30.06F
6HR MIN TEMP:  41; 6HR MAX TEMP:  71;

$$

  *****  SOME NATIONAL WEATHER *****

CITY           SKY/WX    TMP DP  RH WIND       PRES   REMARKS
LA GUARDIA NY  PTSUNNY   65  36  34 S17G24    30.33F
6HR MIN TEMP:  48; 6HR MAX TEMP:  66;

RALEIGH NC     CLOUDY    61  60  97 E16       29.91F
6HR MIN TEMP:  58; 6HR MAX TEMP:  61; 6HR PCP:  0.34;

ATLANTA GA     LGT RAIN  62  59  90 W15       29.88S
6HR MIN TEMP:  59; 6HR MAX TEMP:  66; 6HR PCP: TRACE;

NEW ORLEANS LA FAIR      76  60  57 NW8       30.01F
6HR MIN TEMP:  59; 6HR MAX TEMP:  77;

OKLAHOMA CITY  FAIR      74  44  34 VRB5      30.11F
6HR MIN TEMP:  53; 6HR MAX TEMP:  74;

ALBUQUERQUE NM PTSUNNY   73  19  13 CALM      30.15F
6HR MIN TEMP:  51; 6HR MAX TEMP:  74;

SALT LAKE CITY FAIR      57  34  41 VRB6      30.30F
6HR MIN TEMP:  42; 6HR MAX TEMP:  58;

LOS ANGELES CA PTSUNNY


USA.gov is the U.S. government's official web portal to all federal, state and local government web resources and services.